Stations météo

réclame
Mon MeteoGroup
Le Talut, France (7207): Température de l'air & dewpoint: 22.02.2020 20:00:00 - 28.02.2020 20:00:00 (CET)Le Talut, France (7207): Vitesse du vent & gusts: 22.02.2020 20:00:00 - 28.02.2020 20:00:00 (CET)Le Talut, France (7207): Direction du vent: 22.02.2020 20:00:00 - 28.02.2020 20:00:00 (CET)Le Talut, France (7207): reduced air pressure: 22.02.2020 20:00:00 - 28.02.2020 20:00:00 (CET)Le Talut, France (7207): visibility: 22.02.2020 20:00:00 - 28.02.2020 20:00:00 (CET)Le Talut, France (7207): Quantités de précipitations: 22.02.2020 20:00:00 - 28.02.2020 20:00:00 (CET)
Date & Time tt [°C] td [°C] ff [km/h] ff [knt] fx [km/h] fx [knt] dd ppp [hPa] vv [km] rr [mm]
28.02.2020 20:00:00 11,6 10,0 44 24 61 33 SSW 1007,9 - 0,0
28.02.2020 19:00:00 11,8 10,2 45 24 59 32 SSW 1008,7 - 0,0
28.02.2020 18:00:00 11,9 10,3 32 18 60 33 SSW 1009,4 - 0,0
28.02.2020 17:00:00 11,9 10,6 37 20 58 31 SW 1010,2 - 0,0
28.02.2020 16:00:00 12,0 10,7 34 18 54 29 SW 1010,7 5 0,0
28.02.2020 15:00:00 11,9 10,8 32 17 52 28 SW 1011,4 - 0,0
28.02.2020 14:00:00 11,7 10,4 34 19 51 27 SSW 1012,5 - 0,4
28.02.2020 13:00:00 11,8 10,4 34 18 48 26 SW 1013,6 - 0,0
28.02.2020 12:00:00 11,9 10,6 35 19 48 26 SW 1014,0 - 0,0
28.02.2020 11:00:00 11,8 10,7 33 18 50 27 SW 1014,0 - 0,0
28.02.2020 10:00:00 11,8 10,9 27 15 49 26 SW 1014,3 4,0 0,0
28.02.2020 09:00:00 11,7 10,8 30 16 44 24 SW 1014,1 - 0,0
28.02.2020 08:00:00 11,7 10,8 24 13 41 22 SW 1014,1 - 0,0
28.02.2020 07:00:00 10,4 9,5 34 18 53 29 S 1014,9 6 0,0
28.02.2020 06:00:00 9,2 8,0 39 21 50 27 SSE 1015,9 - 0,0
28.02.2020 05:00:00 9,1 7,0 28 15 44 24 SSE 1016,5 - 0,0
28.02.2020 04:00:00 9,6 5,6 26 14 37 20 S 1016,9 - 0,0
28.02.2020 03:00:00 9,6 4,6 24 13 32 17 S 1018,2 - 0,0
28.02.2020 02:00:00 9,5 3,9 17 9 29 15 S 1018,6 - 0,0
28.02.2020 01:00:00 9,2 3,8 16 9 23 12 S 1018,7 - 0,0
28.02.2020 00:00:00 7,9 3,0 5 3 10 5 E 1019,0 - 0,0
27.02.2020 23:00:00 7,9 2,6 9 5 12 6 NE 1019,1 - 0,0
27.02.2020 22:00:00 7,7 2,2 9 5 13 7 N 1019,2 - 0,0
27.02.2020 21:00:00 8,6 3,0 9 5 21 11 NNW 1018,6 - 0,0
27.02.2020 20:00:00 9,5 3,5 10 5 25 14 WNW 1017,9 - 0,0
27.02.2020 19:00:00 9,3 3,5 15 8 31 17 NW 1016,8 18 0,0
27.02.2020 18:00:00 10,1 2,7 22 12 37 20 NW 1015,4 - 0,0
27.02.2020 17:00:00 10,5 3,3 27 15 49 26 NW 1014,3 - 0,0
27.02.2020 16:00:00 11,7 4,9 26 14 50 27 NW 1013,0 18 0,0
27.02.2020 15:00:00 10,9 3,4 35 19 68 37 NW 1011,6 - 0,0
27.02.2020 14:00:00 10,1 4,9 35 19 68 37 WNW 1010,5 - 0,0
27.02.2020 13:00:00 10,4 5,6 42 23 76 41 WNW 1008,6 - 0,0
27.02.2020 12:00:00 10,5 6,4 45 24 82 45 WNW 1006,5 - 0,0
27.02.2020 11:00:00 10,6 6,7 45 24 81 44 WNW 1004,8 - 0,0
27.02.2020 10:00:00 11,4 9,0 43 23 106 57 W 1002,3 4,0 0,0
27.02.2020 09:00:00 12,2 10,6 62 33 98 53 W 1000,7 - 0,0
27.02.2020 08:00:00 12,1 10,8 58 32 98 53 W 999,9 - 0,0
27.02.2020 07:00:00 11,9 10,8 56 31 101 55 W 1000,1 4,0 0,0
27.02.2020 06:00:00 11,8 11,0 51 27 86 47 WSW 999,9 - 0,0
27.02.2020 05:00:00 11,6 10,8 56 30 85 46 WSW 1000,4 - 0,0
27.02.2020 04:00:00 11,1 10,2 44 24 71 38 SW 1002,0 - 0,4
27.02.2020 03:00:00 10,8 9,9 45 24 71 39 SSW 1004,7 - 1,0
27.02.2020 02:00:00 9,7 8,5 48 26 68 37 S 1007,0 - 0,6
27.02.2020 01:00:00 9,4 7,8 42 23 56 30 SSW 1009,2 - 1,2
27.02.2020 00:00:00 9,2 6,6 31 17 54 29 SW 1011,6 - 0,0
26.02.2020 23:00:00 9,4 5,0 32 17 52 28 SW 1013,1 - 0,0
26.02.2020 22:00:00 8,9 5,5 21 11 36 19 SW 1014,3 - 0,0
26.02.2020 21:00:00 8,8 4,4 23 13 41 22 WSW 1015,1 - 0,0
26.02.2020 20:00:00 8,2 4,2 22 12 58 31 W 1016,2 - 0,0
26.02.2020 19:00:00 8,3 4,5 14 8 39 21 W 1016,3 - 0,2
26.02.2020 18:00:00 8,2 3,6 19 10 56 31 WNW 1016,6 - 0,2
26.02.2020 17:00:00 9,0 4,6 16 9 50 27 WNW 1016,7 - 0,0
26.02.2020 16:00:00 9,2 3,0 29 15 58 31 W 1016,6 - 0,0
26.02.2020 15:00:00 9,3 2,6 26 14 55 30 W 1016,9 - 0,0
26.02.2020 14:00:00 9,6 2,2 26 14 59 32 W 1017,1 - 0,0
26.02.2020 13:00:00 9,7 2,1 27 15 46 25 W 1017,1 15 0,0
26.02.2020 12:00:00 9,1 2,9 24 13 68 37 WNW 1017,1 - 0,0
26.02.2020 11:00:00 9,1 2,4 36 19 63 34 WNW 1016,7 - 0,0
26.02.2020 10:00:00 8,2 1,1 30 16 73 39 WNW 1016,0 15 0,0
26.02.2020 09:00:00 7,2 1,5 44 24 77 41 NW 1015,1 - 0,0
26.02.2020 08:00:00 7,2 1,1 48 26 86 47 WNW 1014,0 - 0,0
26.02.2020 07:00:00 6,0 1,7 46 25 87 47 NW 1013,8 8 0,0
26.02.2020 06:00:00 6,4 2,3 49 26 92 50 WNW 1012,8 - 0,2
26.02.2020 05:00:00 6,8 2,5 42 23 96 52 WNW 1012,7 - 0,0
26.02.2020 04:00:00 7,2 1,7 50 27 110 60 WNW 1012,3 - 0,2
26.02.2020 03:00:00 6,7 2,4 47 26 89 48 NW 1012,2 - 0,0
26.02.2020 02:00:00 7,7 1,7 47 26 98 53 WNW 1011,7 - 0,2
26.02.2020 01:00:00 7,9 3,9 44 24 104 56 W 1011,0 - 0,6
26.02.2020 00:00:00 7,5 4,3 36 19 96 52 WNW 1011,2 - 0,6
25.02.2020 23:00:00 8,5 4,3 60 33 99 54 W 1010,9 - 0,2
25.02.2020 22:00:00 8,4 3,6 52 28 89 48 W 1011,3 - 0,0
25.02.2020 21:00:00 8,8 3,2 35 19 69 38 W 1011,5 - 0,0
25.02.2020 20:00:00 8,8 3,4 41 22 93 50 WNW 1011,5 - 0,0
25.02.2020 19:00:00 7,6 4,7 41 22 126 68 W 1011,1 8 0,4
25.02.2020 18:00:00 9,3 5,3 50 27 101 55 W 1010,6 - 0,0
25.02.2020 17:00:00 10,0 5,2 61 33 98 53 W 1010,5 - 0,0
25.02.2020 16:00:00 9,5 5,9 43 23 87 47 W 1010,8 12 0,0
25.02.2020 15:00:00 10,6 6,0 54 29 82 44 W 1011,0 - 0,0
25.02.2020 14:00:00 11,5 6,2 46 25 72 39 W 1011,7 - 0,0
25.02.2020 13:00:00 10,7 6,1 44 24 75 41 W 1012,3 - 0,0
25.02.2020 12:00:00 10,4 6,3 45 24 82 44 W 1012,7 - 0,0
25.02.2020 11:00:00 10,9 5,8 42 23 76 41 W 1012,7 - 0,0
25.02.2020 10:00:00 10,2 6,3 37 20 71 39 W 1013,2 - 0,0
25.02.2020 09:00:00 8,9 6,2 43 23 74 40 W 1013,4 - 0,0
25.02.2020 08:00:00 10,3 5,5 30 16 59 32 W 1013,2 - 0,0
25.02.2020 07:00:00 9,4 5,6 40 22 74 40 W 1013,8 10 0,0
25.02.2020 06:00:00 9,8 7,0 31 17 56 30 W 1013,7 - 0,0
25.02.2020 05:00:00 9,5 8,4 24 13 42 23 W 1013,4 - 0,0
25.02.2020 04:00:00 9,9 9,1 21 11 45 25 WNW 1014,0 - 0,0
25.02.2020 03:00:00 10,1 9,5 21 11 60 32 W 1014,1 - 0,4
25.02.2020 02:00:00 11,3 10,7 31 17 46 25 W 1014,2 - 0,0
25.02.2020 01:00:00 11,3 10,7 28 15 42 23 W 1014,4 - 0,0
25.02.2020 00:00:00 11,2 10,6 29 16 57 31 WSW 1015,1 - 0,4
24.02.2020 23:00:00 11,1 10,5 35 19 60 33 WSW 1015,6 - 1,4
24.02.2020 22:00:00 11,1 10,5 35 19 60 32 WSW 1016,3 - 0,2
24.02.2020 21:00:00 11,0 10,2 37 20 62 33 WSW 1016,6 - 0,0
24.02.2020 20:00:00 11,0 10,1 37 20 56 31 WSW 1017,2 - 0,0
24.02.2020 19:00:00 10,9 9,7 39 21 62 34 WSW 1017,7 6 0,0
24.02.2020 18:00:00 11,1 8,8 43 23 69 38 WSW 1018,1 - 0,0
24.02.2020 17:00:00 11,2 8,8 39 21 66 36 WSW 1018,6 - 0,0
24.02.2020 16:00:00 10,8 9,1 41 22 63 34 WSW 1019,4 8 0,0
24.02.2020 15:00:00 10,8 8,7 39 21 63 34 WSW 1020,3 - 0,0
24.02.2020 14:00:00 11,0 9,4 27 15 62 33 WSW 1021,0 - 0,0
24.02.2020 13:00:00 10,5 9,1 41 22 64 35 WSW 1022,4 1,0 0,0
24.02.2020 12:00:00 11,1 9,4 35 19 57 31 WSW 1022,8 - 0,0
24.02.2020 11:00:00 11,1 9,5 39 21 59 32 SW 1023,4 - 0,0
24.02.2020 10:00:00 10,7 9,8 34 19 54 29 SW 1024,0 - 0,0
24.02.2020 09:00:00 10,7 9,8 26 14 45 24 WSW 1024,5 - 0,0
24.02.2020 08:00:00 10,5 9,7 30 16 46 25 SW 1024,8 - 0,0
24.02.2020 07:00:00 10,6 9,8 29 15 45 24 SW 1025,4 - 0,0
24.02.2020 06:00:00 10,7 9,8 23 12 42 23 WSW 1026,1 - 0,0
24.02.2020 05:00:00 10,7 9,8 29 15 45 24 WSW 1026,8 - 0,0
24.02.2020 04:00:00 10,8 10,2 27 15 45 24 WSW 1027,4 - 0,0
24.02.2020 03:00:00 11,0 10,2 23 12 41 22 SW 1028,3 - 0,0
24.02.2020 02:00:00 11,4 10,6 28 15 42 23 WSW 1028,9 - 0,0
24.02.2020 01:00:00 11,3 10,7 23 12 39 21 WSW 1029,3 - 0,0
24.02.2020 00:00:00 11,4 10,8 21 11 36 19 WSW 1029,7 - 0,0
23.02.2020 23:00:00 11,3 10,7 21 11 36 20 WSW 1029,9 - 0,0
23.02.2020 22:00:00 11,4 10,8 22 12 35 19 WSW 1030,1 - 0,0
23.02.2020 21:00:00 11,4 10,8 26 14 43 23 WSW 1030,0 - 0,0
23.02.2020 20:00:00 11,5 10,7 27 15 48 26 WSW 1030,1 - 0,0
23.02.2020 19:00:00 11,6 10,8 31 17 49 27 WSW 1029,7 - 0,0
23.02.2020 18:00:00 11,5 10,6 34 18 51 28 WSW 1029,2 - 0,0
23.02.2020 17:00:00 11,5 10,6 32 18 53 28 WSW 1029,3 - 0,0
23.02.2020 16:00:00 11,5 10,6 34 18 55 30 WSW 1029,5 - 0,0
23.02.2020 15:00:00 11,7 10,6 35 19 56 31 WSW 1029,7 - 0,0
23.02.2020 14:00:00 11,6 10,8 34 18 49 27 WSW 1030,0 - 0,0
23.02.2020 13:00:00 11,3 10,5 31 17 54 29 WSW 1030,5 8 0,0
23.02.2020 12:00:00 11,2 10,4 30 16 58 31 WSW 1030,6 - 0,0
23.02.2020 11:00:00 11,0 10,2 35 19 63 34 WSW 1030,0 - 0,0
23.02.2020 10:00:00 10,9 10,3 39 21 61 33 WSW 1029,7 8 0,0
23.02.2020 09:00:00 10,7 9,9 39 21 57 31 WSW 1029,4 - 0,0
23.02.2020 08:00:00 10,8 10,0 34 18 55 30 WSW 1029,2 - 0,0
23.02.2020 07:00:00 10,7 9,9 36 19 58 32 WSW 1029,5 8 0,0
23.02.2020 06:00:00 10,4 9,6 31 17 61 33 WSW 1029,6 - 0,0
23.02.2020 05:00:00 10,5 9,7 34 18 54 29 SW 1029,4 - 0,0
23.02.2020 04:00:00 10,6 9,8 28 15 52 28 SW 1030,1 - 0,0
23.02.2020 03:00:00 10,7 9,8 27 15 53 29 SW 1030,5 - 0,0
23.02.2020 02:00:00 10,8 9,9 35 19 50 27 SW 1030,9 - 0,0
23.02.2020 01:00:00 11,0 10,1 26 14 47 25 WSW 1031,8 - 0,0
23.02.2020 00:00:00 11,0 9,9 32 17 49 26 SW 1031,7 - 0,0
22.02.2020 23:00:00 11,1 10,0 26 14 43 23 SW 1032,2 - 0,0
22.02.2020 22:00:00 11,1 9,7 25 14 44 24 WSW 1032,4 - 0,0
22.02.2020 21:00:00 11,3 9,6 24 13 41 22 WSW 1032,2 - 0,0
22.02.2020 20:00:00 11,3 9,4 26 14 40 21 WSW 1032,3 - 0,0

tt = Température de l'air
td = dewpoint
ff = Vitesse du vent
fx = gusts
dd = Direction du vent
ppp = reduced air pressure
vv = visibility
rr = Quantités de précipitations

stations d'obs. à proximité